Location: Acequia del Cap
(41.7000°N, 0.6167°E)
Time: 15:49:33
(UTC+00:00)

Cosmos 1627 Rocket - Pass Details

Date: 07 August 2020
Orbit: 951 x 1003 km, 82.9° (Epoch: 22 September)

Event Time Altitude Azimuth Distance (km) Brightness Sun altitude
Rises 01:44:38 0° 350° (N) 3,640 8.2 -27.4°
Reaches altitude 10° 01:47:08 10° 348° (NNW) 2,694 7.4 -27.2°
Maximum altitude 01:53:14 70° 266° (W) 1,021 4.4 -26.7°
Enters shadow 01:53:44 67° 235° (SW) 1,040 4.3 -26.6°
